NOAA 16 DEB

Satellite information

Favourite Embed

Satellite Type and Status

DEBRISIN ORBIT

Key statistics

Satellite NOAA 16 DEB at a glance.

Uptime

9115

Days in orbit

Revolutions

≈ 14.2

Per day

Orbit

SSO

Sun Synchronous Orbit

Inclination

98.7

Latest

Satellite identification and parameters

Extended collection of information and parameters for NOAA 16 DEB.

Object identification

Identified? True

Debris? True

Object name: NOAA 16 DEB

International designator: 2000-055GC

Object number (NORAD): 41276

Object ID (CCSDS): 41276

Country: UNITED STATES OF AMERICA (US)

Current information (Y/N): Y

RCS size: SMALL

Orbital parameters

Period: 101.262 minutes

Inclination: 98.6685 deg

SMA: 7196.559 km

Apoapsis: 826.712 km

Periapsis: 810.137 km

RAAN: 292.6042 deg

Eccentricy: 0.00115158

Argument of periapsis: 265.9613 deg

Mean anomaly: 94.0248 deg

Mean motion: 14.22051698 rev/day

Mean motion (dot): 0.00004066 rev/day2

B* drag term: 0.0018562035 1/REarth

Two-line elements (TLE)

Creation date: Aug. 31, 2025, 11:35 a.m.

Reference frame: TEME

Reference center: EARTH

Epoch: Aug. 31, 2025, 1:54 a.m. UTC

TLE line 0: 0 NOAA 16 DEB

TLE line 1: 1 41276U 00055GC 25243.07921741 .00004066 00000-0 18562-2 0 9997

TLE line 2: 2 41276 98.6685 292.6042 0011516 265.9613 94.0248 14.22051698499754

Live tracking on map

Real-time ground track for satellite NOAA 16 DEB.

In-orbit conjunctions

A list of the most updated potential collisions computed for object NOAA 16 DEB.

Target Orbit TCA Probability of collision Miss distance Type
CZ-6A DEB SSO 2024-11-11 10:49:01 0.000104584 784.0 (m) DEBRIS
METEOR 2-6 LEO 2024-07-27 09:25:01 0.001611437 183.0 (m) PAYLOAD

Associated space launch

The NOAA K, L and M POES satellites begin the fifth generation of improved environmental monitoring in support of NOAA missions. The instrument payload has significant improvements and additions/deletions. The instrument changes have effected the spacecraft subsystems and data formats.

NOAA 16 DEB was lifted into orbit during the mission ‘Titan II SLV | NOAA 16’, on board a Titan II SLV space rocket.

The launch took place on Sept. 21, 2000, 10:22 a.m. from Space Launch Complex 4W.

For more information about the launch, click the button.

Launch to space Titan II SLV | NOAA 16
Titan II SLV | NOAA 16

Agency: N/A

Status: Launch Successful

Launch date: Sept. 21, 2000, 10:22 a.m. UTC

Rocket: Titan II SLV

Launch pad: Space Launch Complex 4W

Location: Vandenberg SFB, CA, USA

...

Latest news about this satellite

There are no fresh news available about this satellite. Check back as we update our databases every day.


Newsletter sign-up

Weekly statistics, charts and insights to help you stay on top of the space industry.